Tracking 17559 objects as of 13-February-2016
HD Live streaming from Space Station
objects crossing your sky now

COSMOS 1596

Track COSMOS 1596 now!
COSMOS 1596 is classified as:


NORAD ID: 15267
Int'l Code: 1984-096A
Perigee: 4,737.4 km
Apogee: 35,662.7 km
Inclination: 67.9 °
Period: 718.4 minutes
Semi major axis: 26571 km
RCS: 8.4284 m2 (large)
Launch date: September 7, 1984
Source: Commonwealth of Independent States (former USSR) (CIS)
Launch site: PLESETSK MISSILE AND SPACE COMPLEX (PKMTR)
Your satellite tracking list
Your tracking list is empty





NASA's NSSDC Master Catalog

Two Line Element Set (TLE):
1 15267U 84096A   16044.12188681  .00000802  00000-0 -66271+0 0  9990
2 15267  67.8804  33.1440 5819344 101.5732 351.8756  2.0044250723031
Source of the keplerian elements: AFSPC

N2YO: 512